Regional Weather Roundup
Issued by NWS

Home | Current Version | Previous Version | Graphics & Text | Print | Product List | Glossary On
Versions: 1 2 3 4 5 6 7 8 9 10 11 12 13 14 15 16 17 18 19 20 21 22 23 24 25 26 27 28 29 30 31 32 33 34 35 36 37 38 39 40 41 42 43 44 45 46 47 48 49 50
615
ASUS45 KBOU 221810
RWRCO

WEATHER ROUNDUP FOR COLORADO
NATIONAL WEATHER SERVICE PUEBLO CO
1200 PM MDT SUN APR 22 2018

NOTE: "FAIR" INDICATES FEW OR NO CLOUDS BELOW 12000 FEET WITH NO
SIGNIFICANT WEATHER AND/OR OBSTRUCTIONS TO VISIBILITY.

COZ001>005-013-030-031-221900-
...NORTHWEST COLORADO...

CITY           SKY/WX    TMP DP  RH WIND       PRES   REMARKS
CRAIG          SUNNY     58  36  43 SW5       30.21F
HAYDEN         SUNNY     53  32  44 CALM      30.23F
MEEKER         SUNNY     58  33  39 CALM      30.21F
RABBIT EARS PA NOT AVBL
STEAMBOAT SPGS FAIR      53  35  50 SE6       30.23F
WALDEN         FAIR      52  28  40 SE7       30.27S
$$

COZ006>008-011-221900-
...WEST CENTRAL VALLEYS...

CITY           SKY/WX    TMP DP  RH WIND       PRES   REMARKS
GRAND JUNCTION SUNNY     63  35  35 SE8       30.15F
MONTROSE       SUNNY     58  30  34 VRB5      30.20F
EAGLE          SUNNY     51  32  48 SW5       30.26F
RIFLE          SUNNY     57  38  48 CALM      30.20F
DELTA          NOT AVBL
NUCLA          FAIR      64  28  25 W3        30.19F
$$

COZ017>023-064>068-221900-
...SOUTHWEST COLORADO...

CITY           SKY/WX    TMP DP  RH WIND       PRES   REMARKS
DURANGO        MOSUNNY   62  20  19 MISG      30.18F
CORTEZ         MOSUNNY   65  23  20 SW16      30.15F
PAGOSA SPRINGS FAIR      62  18  18 E9        30.21F
TELLURIDE      SUNNY     53  21  28 N3        30.29F
WOLF CREEK PAS SUNNY     41  14  33 E3        30.44S
$$

COZ009-010-012-014-032>034-037-058>063-221900-
...CENTRAL COLORADO...

CITY           SKY/WX    TMP DP  RH WIND       PRES   REMARKS
ASPEN          SUNNY     54  31  41 CALM      30.24F
BUENA VISTA    FAIR      57  23  27 NE5       30.22F
COPPER MTN     NOT AVBL
BERTHOUD PASS  PTSUNNY   27  16  63 NW10G18   30.39S WCI  17
COTTONWOOD PAS PTSUNNY   55  23  28 CALM      30.30F
GUNNISON       SUNNY     51  30  44 VRB5      30.26F
KREMMLING      SUNNY     54  36  50 W3        30.28F
LEADVILLE      SUNNY     45  24  43 N9G18     30.29F
MONARCH PASS   MOSUNNY   36  28  75 S5        30.49R
SALIDA         FAIR      59  25  26 N6        30.29F
SUNLIGHT       PTSUNNY   37  30  75 CALM      30.40S
WILKERSON PASS SUNNY     39  23  52 E3        30.38F
$$

COZ069>075-221900-
...SAN LUIS VALLEY/SANGRE DE CRISTO MOUNTAINS...

CITY           SKY/WX    TMP DP  RH WIND       PRES   REMARKS
ALAMOSA        SUNNY     55  25  31 VRB7      30.23F
DEL NORTE      FAIR      57  23  27 E12       30.24F
LA VETA PASS   SUNNY     48  27  43 NE7G21    30.42F
SAGUACHE       NOT AVBL
$$

COZ035-036-038>040-221900-
...NORTHERN COLORADO FRONT RANGE...

CITY           SKY/WX    TMP DP  RH WIND       PRES   REMARKS
DENVER INTL AP MOSUNNY   57  37  47 NW8       30.18S
DMNS CITY PARK NOT AVBL
AURORA         MOSUNNY   56  37  48 N6        30.19S
FRONT RANGE AP MOSUNNY   57  39  51 W22       30.19S
ERIE MUNI ARPT FAIR      55  37  50 CALM      30.23F
BOULDER MUN AP FAIR      55  39  54 E5        30.18S
CENTENNIAL     MOSUNNY   57  36  45 N9        30.19S
BROOMFIELD     MOSUNNY   55  36  47 CALM      30.20S
LOVELAND       SUNNY     52  41  66 VRB3      30.19F
LONGMONT       FAIR      59  43  53 SE3       30.20S
$$

COZ041-046-047-076>085-087-088-221900-
...PIKES PEAK/PALMER DIVIDE AND SOUTHERN FOOTHILLS...

CITY           SKY/WX    TMP DP  RH WIND       PRES   REMARKS
COLO. SPRINGS  MOSUNNY   57  39  51 SW7       30.18F
A. F. ACADEMY  SUNNY     59  29  31 N15G23    30.18F
SCHRIEVER AFB  NOT AVBL
CHEYENNE MTN   NOT AVBL
ELLICOTT         N/A    N/A N/A N/A N18G25    30.16F
FALCON         FAIR      59  28  31 NW13G22   30.22S
FORT CARSON    SUNNY     56  38  51 S5        30.16F
LIMON          SUNNY     52  37  56 N6        30.18F
MONUMENT HILL  SUNNY     54  32  43 N15       30.23F
CANON CITY     FAIR      57  41  54 E8        30.16F
WALSENBURG     FAIR      64  27  24 N12G18    30.17F
TRINIDAD       SUNNY     65  31  28 NE10G20   30.17F
$$

COZ042>045-048>051-090-091-221900-
...NORTHEAST COLORADO...

CITY           SKY/WX    TMP DP  RH WIND       PRES   REMARKS
GREELEY ARPT   SUNNY     53  40  61 VRB3      30.19F
AKRON          MOSUNNY   50  38  63 VRB3      30.19F
BURLINGTON     PTSUNNY   50  35  56 VRB3      30.20F
WRAY           FAIR      52  36  54 SE6       30.21F
YUMA           NOT AVBL
STERLING       NOT AVBL
HOLYOKE        PTSUNNY   54  37  54 CALM      30.21S
FORT MORGAN    FAIR      54  35  48 NE5       30.19F
$$

COZ086-089-092>099-221900-
...SOUTHEAST COLORADO...

CITY           SKY/WX    TMP DP  RH WIND       PRES   REMARKS
PUEBLO         SUNNY     55  37  50 CALM      30.16F
LA JUNTA       CLOUDY    48  40  73 NE7       30.20F
LAMAR          CLOUDY    49  35  58 VRB3      30.20F
SPRINGFIELD      N/A     50  37  61 VRB6      30.19F
$$





USA.gov is the U.S. government's official web portal to all federal, state and local government web resources and services.